N7IPB-1 Weather Reports


time (UTC)temp
C
wind
direction
speed
KPH
gust
KPH
rain 1hr
cm
rain 24hr
cm
rain mn
cm
humidity
%
barometer
mb
20260507073617 11 0.0 0.0 0.00 0.00 0.00 85 1020.3
20260507072617 11 0.0 0.0 0.00 0.00 0.00 85 1020.2
20260507071616 11 225 1.6 1.6 0.00 0.00 0.00 85 1020.2
20260507070636 11 0.0 1.6 0.00 0.00 0.00 84 1020.2
20260507065617 11 225 1.6 4.8 0.00 0.00 0.00 82 1020.3
20260507064638 11 0.0 0.0 0.00 0.00 0.00 82 1020.2
20260507063617 11 0.0 0.0 0.00 0.00 0.00 81 1020.2
20260507062617 11 0.0 1.6 0.00 0.00 0.00 81 1020.2
20260507061638 11 0.0 0.0 0.00 0.00 0.00 82 1020.2
20260507060617 11 0.0 1.6 0.00 0.00 0.00 82 1020.2
20260507055637 11 225 1.6 4.8 0.00 0.00 0.00 82 1020.1
20260507054637 11 225 4.8 8.0 0.00 0.00 0.00 83 1020.2
20260507053617 11 225 1.6 3.2 0.00 0.00 0.00 84 1020.2
20260507052637 11 0.0 3.2 0.00 0.00 0.00 85 1020.2
20260507051617 11 0.0 0.0 0.00 0.00 0.00 86 1020.3
20260507050616 11 225 1.6 4.8 0.00 0.00 0.00 86 1020.2
20260507045616 12 0.0 0.0 0.00 0.00 0.00 85 1020.3
20260507044619 12 0.0 3.2 0.00 0.00 0.00 85 1020.2
20260507043617 12 0.0 0.0 0.00 0.00 0.00 84 1020.2
20260507042617 12 225 1.6 4.8 0.00 0.00 0.00 83 1020.1
20260507041617 12 0.0 1.6 0.00 0.00 0.00 83 1020.1
20260507040617 12 0.0 0.0 0.00 0.00 0.00 83 1020.1
20260507035616 12 0.0 0.0 0.00 0.00 0.00 82 1020.0
20260507034616 12 0.0 0.0 0.00 0.00 0.00 82 1019.9
20260507033617 12 0.0 0.0 0.00 0.00 0.00 82 1019.8
20260507032617 12 338 1.6 4.8 0.00 0.00 0.00 81 1019.7
20260507031616 12 0.0 0.0 0.00 0.00 0.00 81 1019.6
20260507030617 13 0.0 0.0 0.00 0.00 0.00 81 1019.6
20260507025617 13 0.0 0.0 0.00 0.00 0.00 80 1019.5
20260507024616 13 225 3.2 3.2 0.00 0.00 0.00 80 1019.5
20260507023617 13 0 1.6 8.0 0.00 0.00 0.00 80 1019.5
20260507022617 13 0.0 1.6 0.00 0.00 0.00 79
20260507021617 13 225 1.6 6.4 0.00 0.00 0.00 79
20260507020616 13 0.0 1.6 0.00 0.00 0.00 78
20260507015616 13 0.0 1.6 0.00 0.00 0.00 78
20260507014616 13 225 1.6 1.6 0.00 0.00 0.00 78
20260507013636 13 0.0 1.6 0.00 0.00 0.00 77
20260507012616 13 225 1.6 4.8 0.00 0.00 0.00 77
20260507011636 13 225 1.6 4.8 0.00 0.00 0.00 77
20260507010617 14 225 1.6 3.2 0.00 0.00 0.00 78
20260507005616 14 0.0 3.2 0.00 0.00 0.00 78
20260507004636 14 315 1.6 3.2 0.00 0.00 0.00 77
20260507003616 14 0.0 3.2 0.00 0.00 0.00 77
20260507002617 14 338 1.6 4.8 0.00 0.00 0.00 77 1019.5
20260507001616 14 0.0 1.6 0.00 0.00 0.00 76 1019.4
20260507000616 14 0.0 1.6 0.00 0.00 0.00 76 1019.4
20260506235616 14 225 1.6 4.8 0.00 0.00 0.00 75 1019.4
20260506234616 14 0.0 1.6 0.00 0.00 0.00 75 1019.5
20260506233616 15 0.0 1.6 0.00 0.00 0.00 75 1019.5
20260506232636 15 90 1.6 3.2 0.00 0.00 0.00 74 1019.5
20260506231616 15 225 1.6 4.8 0.00 0.00 0.00 73 1019.5
20260506230616 15 23 1.6 4.8 0.00 0.00 0.00 74 1019.5
20260506225636 15 225 1.6 3.2 0.00 0.00 0.00 74 1019.6
20260506224616 15 225 1.6 6.4 0.00 0.00 0.00 75 1019.6
20260506223616 15 225 1.6 6.4 0.00 0.00 0.00 75 1019.7
20260506222616 15 225 3.2 6.4 0.00 0.00 0.00 75 1019.7
20260506221636 15 158 3.2 3.2 0.00 0.00 0.00 75 1019.8
20260506220616 14 225 1.6 4.8 0.00 0.00 0.00 77 1019.8
20260506215616 13 225 4.8 8.0 0.00 0.00 0.00 77 1019.9
20260506214616 13 338 1.6 6.4 0.00 0.00 0.00 77 1019.9
20260506213636 13 225 1.6 6.4 0.00 0.00 0.00 78 1019.9
20260506212616 13 0.0 1.6 0.00 0.00 0.00 78 1019.9
20260506211616 13 0.0 1.6 0.00 0.00 0.00 78 1019.9
20260506210616 13 338 3.2 6.4 0.00 0.00 0.00 77 1019.9
20260506205616 13 0 1.6 4.8 0.00 0.00 0.00 77 1019.9
20260506204616 13 0.0 1.6 0.00 0.00 0.00 78 1019.9
20260506203616 13 225 1.6 3.2 0.00 0.00 0.00 78 1019.8
20260506202616 13 0.0 1.6 0.00 0.00 0.00 77 1019.8
20260506201617 13 0.0 1.6 0.00 0.00 0.00 79 1019.7
20260506200616 13 0.0 1.6 0.00 0.00 0.00 79 1019.6
20260506195615 13 0.0 0.0 0.00 0.00 0.00 79 1019.6
20260506194616 13 315 1.6 4.8 0.00 0.00 0.00 79 1019.5
20260506193615 13 248 1.6 4.8 0.00 0.00 0.00 80 1019.4
20260506192616 13 225 4.8 8.0 0.00 0.00 0.00 81 1019.4
20260506191616 13 225 1.6 9.7 0.00 0.00 0.00 82 1019.4
20260506190616 13 225 1.6 3.2 0.00 0.00 0.00 82 1019.4
20260506185636 12 225 1.6 4.8 0.00 0.00 0.00 83 1019.4
20260506184616 12 0.0 0.0 0.00 0.00 0.00 83 1019.5
20260506183616 12 270 1.6 3.2 0.00 0.00 0.00 83 1019.6
20260506182616 12 338 1.6 3.2 0.00 0.00 0.00 84 1019.5
20260506181616 12 0.0 1.6 0.00 0.00 0.00 84 1019.1
20260506180616 12 0.0 1.6 0.00 0.00 0.00 85 1019.2
20260506175635 12 0.0 0.0 0.00 0.00 0.00 85 1019.2
20260506174616 12 225 1.6 3.2 0.00 0.00 0.00 85 1019.3
20260506173615 12 315 1.6 4.8 0.00 0.00 0.00 85 1019.2
20260506172616 12 0.0 1.6 0.00 0.00 0.00 85 1019.3
20260506171615 12 0.0 4.8 0.00 0.00 0.00 85 1019.3
20260506170635 12 0.0 0.0 0.00 0.00 0.00 85 1019.3
20260506165618 12 225 1.6 6.4 0.00 0.00 0.00 86 1019.2
20260506164615 12 0.0 0.0 0.00 0.00 0.00 86 1019.2
20260506163615 12 0.0 3.2 0.00 0.00 0.00 85 1018.9
20260506162618 12 225 3.2 4.8 0.00 0.00 0.00 85 1018.8
20260506161615 11 0.0 0.0 0.00 0.00 0.00 83 1018.7
20260506160617 11 0.0 1.6 0.00 0.00 0.00 82 1018.7
20260506155615 11 225 1.6 4.8 0.00 0.00 0.00 83 1019.0
20260506154617 11 0.0 0.0 0.00 0.00 0.00 82 1019.1
20260506153619 11 0.0 0.0 0.00 0.00 0.00 82 1019.1
20260506152618 11 0.0 1.6 0.00 0.00 0.00 83 1018.8
20260506151617 11 0.0 1.6 0.00 0.00 0.00 84 1018.7
20260506150618 11 225 1.6 4.8 0.00 0.00 0.00 84 1018.9
20260506145618 11 0.0 1.6 0.00 0.00 0.00 84 1018.9
20260506144618 11 0.0 0.0 0.00 0.00 0.00 84 1019.0
20260506143617 11 0.0 1.6 0.00 0.00 0.00 84 1018.6
20260506142630 11 0.0 0.0 0.00 0.00 0.00
20260506142513 -17 0.0 0.0 0.00 0.00 0.00
20260506141537 -17 0.0 0.0 0.00 0.00 0.00
20260506140615 -17 0.0 0.0 0.00 0.00 0.00
20260506140459 -17 0.0 0.0 0.00 0.00 0.00
20260506140356 -17 0.0 0.0 0.00 0.00 0.00
20260506140219 -17 0.0 0.0 0.00 0.00 0.00
20260506140117 -17 0.0 0.0 0.00 0.00 0.00
20260506135940 -17 0.0 0.0 0.00 0.00 0.00
20260506135806 -17 0.0 0.0 0.00 0.00 0.00
20260506135038 -17 0.0 0.0 0.00 0.00 0.00
20260506134100 -17 0.0 0.0 0.00 0.00 0.00
20260506134003 -17 0.0 0.0 0.00 0.00 0.00
20260506133806 -17 0.0 0.0 0.00 0.00 0.00
20260506133649 -17 0.0 0.0 0.00 0.00 0.00
20260506133532 -17 0.0 0.0 0.00 0.00 0.00
20260506133358 -17 0.0 0.0 0.00 0.00 0.00
20260506132617 -17 0.0 0.0 0.00 0.00 0.00
20260506131651 -17 0.0 0.0 0.00 0.00 0.00
20260506131535 -17 0.0 0.0 0.00 0.00 0.00
20260506131418 -17 0.0 0.0 0.00 0.00 0.00
20260506131315 -17 0.0 0.0 0.00 0.00 0.00
20260506131133 -17 0.0 0.0 0.00 0.00 0.00
20260506131017 -17 0.0 0.0 0.00 0.00 0.00
20260506130815 -17 0.0 0.0 0.00 0.00 0.00
20260506130017 -17 0.0 0.0 0.00 0.00 0.00
20260506125053 -17 0.0 0.0 0.00 0.00 0.00
20260506124936 -17 0.0 0.0 0.00 0.00 0.00
20260506124831 -17 0.0 0.0 0.00 0.00 0.00
20260506124708 -17 0.0 0.0 0.00 0.00 0.00
20260506124545 -17 0.0 0.0 0.00 0.00 0.00
20260506124408 -17 0.0 0.0 0.00 0.00 0.00
20260506123518 -17 0.0 0.0 0.00 0.00 0.00
20260506122608 -17 0.0 0.0 0.00 0.00 0.00 84
20260506122451 -17 0.0 0.0 0.00 0.00 0.00 84
20260506122348 -17 0.0 0.0 0.00 0.00 0.00 84
20260506122211 -17 0.0 0.0 0.00 0.00 0.00 84
20260506122108 -17 0.0 0.0 0.00 0.00 0.00 84
20260506121932 -17 0.0 0.0 0.00 0.00 0.00 84
20260506121816 -17 229 1.6 0.0 0.00 0.00 0.00 84
20260506120817 11 0.0 0.0 0.00 0.00 0.00 84 1018.0
20260506115817 11 0.0 3.2 0.00 0.00 0.00 84 1017.9
20260506114817 11 225 1.6 3.2 0.00 0.00 0.00 84 1017.6
20260506113817 11 225 1.6 3.2 0.00 0.00 0.00 84 1017.7
20260506112817 11 225 1.6 3.2 0.00 0.00 0.00 85 1017.8
20260506111817 11 0.0 0.0 0.00 0.00 0.00 85 1017.8
20260506110857 11 0.0 1.6 0.00 0.00 0.00 85 1017.5
20260506105819 11 225 3.2 4.8 0.00 0.00 0.00 85 1017.5
20260506104837 11 0.0 0.0 0.00 0.00 0.00 85 1017.5
20260506103817 11 0.0 0.0 0.00 0.00 0.00 85 1017.4
20260506102818 11 0.0 1.6 0.00 0.00 0.00 85 1017.3
20260506101816 11 0.0 1.6 0.00 0.00 0.00 85 1017.2
20260506100817 11 225 1.6 4.8 0.00 0.00 0.00 85 1017.1
20260506095816 11 0.0 0.0 0.00 0.00 0.00 85 1017.0
20260506094817 11 225 1.6 3.2 0.00 0.00 0.00 85 1016.8
20260506093820 11 0.0 0.0 0.00 0.00 0.00 85 1016.9
20260506092817 11 0.0 1.6 0.00 0.00 0.00 85 1016.8
20260506091817 11 0.0 1.6 0.00 0.00 0.00 85 1016.8
20260506090817 11 0.0 0.0 0.00 0.00 0.00 85 1016.8
20260506085837 11 0.0 1.6 0.00 0.00 0.00 85 1016.7
20260506084816 11 0.0 1.6 0.00 0.00 0.00 85 1016.7
20260506083816 11 203 1.6 3.2 0.00 0.00 0.00 85 1016.6
20260506082816 11 0.0 1.6 0.00 0.00 0.00 85 1016.5
20260506081817 11 0.0 0.0 0.00 0.00 0.00 85 1016.5
20260506080816 11 225 1.6 1.6 0.00 0.00 0.00 85 1016.5